TimeCDT,TemperatureF,Dew PointF,Humidity,Sea Level PressureIn,VisibilityMPH,Wind Direction,Wind SpeedMPH,Gust SpeedMPH,PrecipitationIn,Events,Conditions,WindDirDegrees,DateUTC
12:53 AM,45.0,44.1,97,30.05,10.0,West,3.5,-,N/A,,Overcast,270,2013-07-27 05:53:00
1:53 AM,45.0,43.0,93,30.03,10.0,WSW,5.8,-,N/A,,Mostly Cloudy,250,2013-07-27 06:53:00
2:53 AM,45.0,42.1,90,30.01,10.0,West,5.8,-,N/A,,Partly Cloudy,280,2013-07-27 07:53:00
3:53 AM,46.0,44.1,93,29.99,10.0,West,5.8,-,N/A,,Overcast,270,2013-07-27 08:53:00
4:53 AM,46.9,45.0,93,29.98,10.0,West,5.8,-,N/A,,Overcast,270,2013-07-27 09:53:00
5:23 AM,48.2,44.6,87,29.97,10.0,West,5.8,-,N/A,,Overcast,260,2013-07-27 10:23:00
5:53 AM,48.0,46.0,93,29.98,10.0,West,5.8,-,N/A,,Overcast,270,2013-07-27 10:53:00
6:25 AM,48.2,46.4,93,29.96,10.0,West,5.8,-,N/A,,Overcast,270,2013-07-27 11:25:00
6:53 AM,48.9,46.9,93,29.96,10.0,West,4.6,-,N/A,,Overcast,280,2013-07-27 11:53:00
7:14 AM,50.0,46.4,87,29.94,10.0,WNW,4.6,-,N/A,,Overcast,300,2013-07-27 12:14:00
7:44 AM,50.0,46.4,87,29.93,10.0,WNW,5.8,-,N/A,,Overcast,290,2013-07-27 12:44:00
7:53 AM,51.1,46.9,86,29.95,10.0,WNW,9.2,-,N/A,,Overcast,300,2013-07-27 12:53:00
8:53 AM,51.1,46.0,83,29.94,10.0,NW,6.9,-,N/A,,Overcast,310,2013-07-27 13:53:00
9:53 AM,53.1,46.0,77,29.93,10.0,NW,9.2,-,N/A,,Overcast,310,2013-07-27 14:53:00
10:02 AM,53.6,46.4,77,29.91,10.0,WNW,11.5,-,N/A,,Overcast,300,2013-07-27 15:02:00
10:09 AM,51.8,44.6,76,29.91,10.0,WNW,6.9,-,N/A,,Overcast,300,2013-07-27 15:09:00
10:53 AM,53.1,45.0,74,29.91,10.0,WNW,11.5,18.4,N/A,,Overcast,300,2013-07-27 15:53:00
11:03 AM,53.6,46.4,77,29.90,10.0,NW,8.1,20.7,N/A,,Overcast,310,2013-07-27 16:03:00
11:37 AM,55.4,46.4,72,29.89,10.0,NW,10.4,-,N/A,,Overcast,310,2013-07-27 16:37:00
11:53 AM,54.0,46.9,77,29.91,10.0,WNW,9.2,17.3,N/A,,Overcast,300,2013-07-27 16:53:00
12:53 PM,55.0,48.0,77,29.89,10.0,WNW,10.4,-,N/A,,Overcast,290,2013-07-27 17:53:00
1:14 PM,55.4,48.2,77,29.88,10.0,NW,8.1,-,N/A,,Overcast,310,2013-07-27 18:14:00
1:36 PM,53.6,48.2,82,29.88,4.0,North,8.1,19.6,0.00,Rain,Light Rain,350,2013-07-27 18:36:00
1:46 PM,53.6,48.2,82,29.88,10.0,North,9.2,-,0.00,,Overcast,350,2013-07-27 18:46:00
1:53 PM,55.9,48.9,77,29.89,10.0,North,9.2,-,0.00,,Overcast,350,2013-07-27 18:53:00
2:37 PM,57.2,46.4,67,29.87,10.0,NNW,9.2,17.3,N/A,,Mostly Cloudy,330,2013-07-27 19:37:00
2:53 PM,57.0,46.0,67,29.89,10.0,NNW,12.7,-,N/A,,Overcast,330,2013-07-27 19:53:00
3:06 PM,55.4,44.6,67,29.88,10.0,NW,10.4,-,N/A,,Overcast,320,2013-07-27 20:06:00
3:53 PM,54.0,48.0,80,29.90,10.0,North,5.8,-,0.01,,Overcast,350,2013-07-27 20:53:00
4:53 PM,54.0,48.0,80,29.90,10.0,North,9.2,-,0.00,,Overcast,350,2013-07-27 21:53:00
5:53 PM,53.1,48.0,83,29.90,10.0,North,8.1,-,0.01,,Overcast,360,2013-07-27 22:53:00
6:53 PM,54.0,46.9,77,29.91,10.0,NNW,9.2,-,N/A,,Scattered Clouds,340,2013-07-27 23:53:00
7:53 PM,52.0,46.0,80,29.92,10.0,North,9.2,-,N/A,,Mostly Cloudy,350,2013-07-28 00:53:00
8:21 PM,51.8,46.4,82,29.90,10.0,NNW,6.9,-,N/A,,Overcast,330,2013-07-28 01:21:00
8:53 PM,50.0,46.9,89,29.92,10.0,NNW,5.8,-,N/A,,Overcast,330,2013-07-28 01:53:00
9:53 PM,50.0,46.9,89,29.93,10.0,NW,4.6,-,N/A,,Overcast,320,2013-07-28 02:53:00
10:39 PM,50.0,48.2,94,29.91,10.0,NW,3.5,-,N/A,,Overcast,310,2013-07-28 03:39:00
10:53 PM,51.1,48.0,89,29.93,10.0,NW,3.5,-,N/A,,Overcast,310,2013-07-28 03:53:00
11:13 PM,51.8,48.2,88,29.91,10.0,NNW,6.9,-,N/A,,Overcast,330,2013-07-28 04:13:00
11:22 PM,51.8,48.2,88,29.91,10.0,North,9.2,-,N/A,,Overcast,350,2013-07-28 04:22:00
11:34 PM,51.8,48.2,88,29.91,6.0,NNW,6.9,-,N/A,,Overcast,340,2013-07-28 04:34:00
11:42 PM,51.8,48.2,88,29.92,2.5,NNW,6.9,-,N/A,,Overcast,340,2013-07-28 04:42:00
11:53 PM,51.1,48.9,92,29.93,3.0,NNW,6.9,-,0.01,,Overcast,340,2013-07-28 04:53:00
11:57 PM,51.8,48.2,88,29.92,3.0,NNW,6.9,-,N/A,,Overcast,340,2013-07-28 04:57:00